Wind_Speed
60 64 66 65 66 66 69 74 74 78 75 80 81 83 82 72 65 53 52 49 53 57 66 67 76 81 81 79 77 79 75 70 70 74 76 81 75 80 74 75 80 81 87 91 86
60 62 62 64 64 68 69 74 76 77 76 80 78 81 80 79 68 48 51 49 52 56 59 64 68 71 73 76 79 77 74 71 72 75 75 77 71 77 75 74 77 78 78 90 93
61 60 61 63 65 69 71 77 78 78 78 81 77 76 83 72 70 58 47 48 48 51 54 59 63 65 67 71 73 77 73 77 73 75 74 72 71 73 75 75 77 77 78 81 87
59 62 64 66 69 70 76 77 77 79 80 77 70 74 81 76 67 59 53 46 46 47 52 57 61 61 61 64 70 68 70 75 77 77 74 73 73 68 72 75 77 75 75 76 78
62 64 68 70 74 72 77 78 78 78 75 75 70 74 82 77 68 60 54 41 45 46 48 54 59 61 60 60 63 61 68 70 73 74 72 74 71 69 66 69 73 74 72 76 78
64 69 70 74 76 78 78 82 80 76 75 75 68 70 79 76 68 60 51 42 41 44 43 49 55 59 61 59 59 62 63 64 65 68 69 69 70 67 61 70 70 71 70 77 75
66 71 77 78 78 79 81 81 80 77 75 73 69 73 78 70 66 59 54 43 37 41 41 45 52 57 62 61 58 59 59 64 64 64 65 70 65 65 68 68 66 68 71 74 76
68 70 77 78 81 82 82 82 81 79 75 71 67 72 74 65 59 56 52 44 37 36 38 39 47 54 61 62 62 59 58 59 63 65 68 67 59 67 64 66 63 66 68 71 75
73 77 79 83 85 86 85 83 83 79 69 69 67 70 74 62 55 54 53 49 38 32 34 34 43 53 58 59 60 62 59 59 60 65 66 64 58 64 63 63 60 62 65 69 72
77 80 81 86 83 86 84 84 78 71 68 71 67 71 71 60 54 49 49 52 42 35 29 35 41 51 57 59 62 61 61 60 60 62 64 63 60 61 60 60 58 58 63 66 69
80 83 82 85 84 85 84 80 76 76 73 69 67 69 63 56 54 54 48 48 46 38 34 32 41 49 57 61 63 62 64 63 64 63 60 63 62 66 68 62 62 63 63 65 69
84 85 86 86 85 83 84 83 81 77 68 68 68 68 61 56 55 51 51 48 43 40 37 35 37 47 56 62 64 64 66 68 68 67 61 62 63 66 70 68 68 68 67 66 66
89 88 88 88 87 84 83 84 81 69 63 69 72 66 63 56 54 53 51 54 46 39 36 39 38 42 51 62 66 67 67 69 67 69 65 62 61 64 68 68 69 76 70 66 64
90 90 91 85 81 84 85 84 72 70 68 66 69 66 61 59 55 54 54 52 55 46 41 40 41 44 45 53 64 71 72 72 72 71 66 61 65 67 70 72 78 74 66 64 64
92 94 91 85 87 85 82 75 73 73 72 68 68 68 61 59 58 57 56 55 53 56 49 42 44 43 50 50 55 61 74 75 75 73 68 65 62 72 74 79 78 71 68 67 66
93 91 87 80 76 73 72 73 73 72 72 72 67 65 60 61 62 61 61 61 59 57 57 55 47 49 51 52 57 59 61 69 79 77 72 77 68 63 82 83 77 79 78 73 68
91 84 83 78 73 71 72 72 72 73 72 68 66 64 63 62 61 63 64 63 60 57 60 60 62 54 55 56 59 61 63 67 70 76 78 78 78 75 80 79 80 83 84 79 72
85 83 79 77 76 74 70 71 72 71 69 68 67 65 63 62 62 62 63 61 59 65 65 66 68 67 67 63 62 65 66 69 72 71 73 79 80 84 85 85 84 80 76 76 72
83 82 76 76 74 72 71 71 68 69 69 68 67 65 64 64 63 65 67 69 67 69 72 73 73 76 76 76 71 66 67 72 75 73 76 71 77 87 88 91 88 85 81 79 75
88 85 83 80 77 73 70 73 71 68 68 67 66 64 63 66 66 67 67 68 72 76 80 81 82 84 82 83 83 78 73 74 79 77 75 73 76 81 88 88 89 88 89 85 83
92 89 87 85 83 82 80 78 76 73 72 70 69 69 70 68 70 71 71 72 76 78 81 86 87 85 78 81 81 79 75 73 78 77 76 73 77 85 81 85 90 90 90 89 88
92 92 92 89 89 87 82 81 78 76 75 75 72 72 71 72 72 73 74 76 78 78 82 82 85 77 78 78 78 73 73 72 74 73 76 76 75 82 84 83 83 88 92 90 90
94 92 92 91 90 87 84 81 80 79 79 78 76 74 73 74 76 77 80 79 79 79 79 79 75 66 67 73 74 66 67 69 70 70 70 79 67 84 83 84 83 83 84 90 94
97 95 95 92 90 88 86 83 82 82 81 81 80 80 77 80 82 81 82 80 81 82 80 77 74 71 67 72 70 67 67 68 69 66 66 70 69 84 88 85 91 91 89 89 92
102 100 98 95 93 90 88 86 85 84 84 84 84 85 84 85 88 85 84 84 82 81 80 76 73 75 71 68 68 62 62 66 67 68 72 60 72 81 89 90 87 95 94 90 88
105 104 103 95 93 93 90 86 84 83 85 88 88 89 89 89 87 85 85 84 81 79 75 74 72 71 67 67 68 60 58 63 68 71 74 67 68 77 88 89 89 90 98 95 91
105 105 102 94 92 90 89 86 89 89 89 90 90 89 91 88 87 85 85 82 78 75 77 73 68 68 59 72 68 51 67 70 70 71 74 71 65 80 83 88 87 92 95 101 96
Wind_Direction
301 304 306 309 311 311 314 313 315 313 316 315 314 312 313 313 315 304 293 281 269 258 250 246 247 248 249 249 248 248 247 246 246 243 244 244 243 247 237 239 239 237 236 235 234
306 310 310 311 312 312 314 315 318 315 317 316 314 315 316 320 318 305 294 284 272 263 253 250 245 246 248 247 246 247 245 244 244 242 242 245 242 246 241 239 241 238 237 237 236
307 310 310 311 311 312 314 315 317 318 320 315 314 316 320 320 316 311 299 291 274 263 255 248 242 239 242 243 243 246 245 244 243 241 243 244 243 243 243 242 241 239 236 236 237
306 309 313 313 313 315 316 315 317 319 318 316 316 317 322 320 316 310 303 288 278 265 255 250 242 239 238 238 239 239 239 239 239 241 240 241 242 240 242 241 243 242 238 235 237
306 309 311 313 313 313 317 315 316 318 317 319 316 317 322 319 315 314 303 290 278 269 257 250 245 238 238 237 237 236 235 236 238 239 239 240 241 239 242 242 240 240 237 237 237
306 309 311 312 311 314 315 315 314 317 316 317 316 318 318 317 316 312 304 299 281 275 265 251 244 238 236 237 235 232 231 232 233 238 238 238 240 239 242 243 241 240 236 236 235
305 310 310 312 310 312 314 312 314 314 314 316 318 313 317 316 316 311 309 302 289 282 271 253 242 234 233 234 233 235 236 232 232 235 233 234 237 237 240 245 243 241 237 236 236
308 309 312 309 310 311 312 314 310 310 311 312 317 314 315 314 313 311 311 305 294 289 276 254 239 235 232 232 232 233 235 240 236 237 236 235 234 237 237 244 246 244 240 236 235
307 306 309 309 307 309 311 310 310 309 309 312 315 314 314 312 309 310 310 305 298 291 278 253 237 232 233 234 236 236 237 239 241 240 235 235 227 237 239 244 247 244 241 238 235
305 307 306 308 308 309 309 310 308 309 311 311 312 312 309 309 305 307 308 309 303 290 279 254 238 232 231 233 237 236 234 238 241 243 241 237 225 233 238 240 243 244 241 240 237
304 303 305 304 305 307 306 308 310 308 308 308 310 310 307 305 304 306 304 305 305 294 283 262 243 233 232 233 236 236 235 237 239 241 241 240 232 232 236 238 240 245 244 239 237
302 302 303 306 304 304 306 310 306 305 305 307 307 307 304 299 300 301 304 301 300 297 288 277 253 240 235 235 236 238 238 238 240 243 241 240 236 232 238 236 239 240 241 238 237
303 302 302 303 303 304 305 307 304 302 305 305 306 306 301 297 296 296 295 297 293 289 287 279 268 253 240 237 236 238 239 243 242 242 242 239 234 232 235 238 237 237 240 237 237
300 301 302 302 302 303 302 303 302 302 302 303 303 301 297 293 293 290 290 291 295 288 275 275 273 264 255 245 239 239 240 240 243 246 245 238 227 234 233 236 236 234 241 240 236
301 301 303 300 299 301 301 302 303 301 300 298 296 297 295 290 290 286 285 283 285 289 285 271 268 267 260 254 246 243 243 240 240 240 242 245 233 228 233 231 233 236 236 239 237
301 299 299 299 298 298 301 303 303 300 297 295 295 294 292 290 287 284 281 281 280 282 285 285 267 265 261 260 256 245 245 245 242 239 237 238 236 232 236 236 233 235 237 236 237
298 298 298 298 299 300 302 302 300 299 295 296 293 291 288 288 286 282 281 279 278 281 281 281 282 273 268 261 258 256 249 245 242 242 237 236 237 231 237 235 238 238 239 238 235
296 298 298 297 297 300 300 298 298 296 295 295 292 288 286 286 286 285 282 279 280 279 279 279 279 280 279 272 261 256 256 252 246 241 239 236 236 235 235 237 237 238 239 238 235
297 298 299 299 298 297 298 299 301 296 294 292 289 287 288 288 285 286 285 283 276 273 274 274 271 273 275 275 275 265 258 256 254 247 239 236 236 237 234 236 237 237 237 238 235
298 299 301 300 302 301 302 302 303 299 297 294 290 287 287 286 286 285 284 282 281 276 273 272 272 272 272 272 273 273 269 260 254 250 246 237 236 237 237 235 237 237 237 235 236
298 300 299 301 301 303 305 305 304 302 299 297 293 289 288 286 287 287 286 283 280 279 278 276 277 277 279 276 273 270 267 258 254 252 248 243 238 238 234 236 235 236 237 235 235
297 299 301 300 300 302 303 304 303 302 299 296 294 291 290 289 289 288 286 283 283 281 279 279 278 282 280 276 272 272 268 262 257 253 249 244 240 239 236 234 235 235 235 235 235
296 298 298 297 299 301 302 302 301 300 299 296 294 293 292 291 292 290 289 288 288 286 285 283 284 282 279 276 274 267 262 261 258 252 248 244 237 243 239 233 235 236 236 235 234
295 296 296 298 299 301 301 300 299 299 297 296 296 295 294 293 291 291 291 292 291 289 289 288 287 283 280 276 271 268 264 260 257 253 248 246 237 237 239 233 230 232 232 232 232
294 295 295 296 298 300 300 299 298 297 296 296 296 295 294 293 291 292 294 292 291 290 289 288 284 281 279 275 271 266 263 261 257 254 249 243 238 237 236 234 231 231 234 234 232
292 292 293 296 297 298 298 297 295 293 293 293 293 293 292 291 293 293 292 292 291 289 288 283 281 279 278 274 270 268 267 262 260 256 252 243 240 237 237 235 231 230 230 233 234
290 291 293 294 294 295 295 294 291 291 291 291 292 292 291 292 292 293 292 291 290 288 286 285 282 277 273 272 268 270 268 263 257 256 253 246 238 239 235 234 232 230 230 231 232
Height
10647 10642 10636 10629 10623 10616 10607 10597 10590 10580 10571 10561 10553 10543 10538 10539 10534 10523 10516 10514 10513 10513 10516 10519 10525 10531 10537 10544 10549 10555 10568 10579 10580 10581 10582 10587 10604 10601 10620 10627 10630 10638 10647 10655 10669
10636 10631 10626 10619 10611 10604 10596 10588 10578 10569 10560 10551 10541 10531 10524 10517 10512 10508 10500 10497 10495 10496 10497 10502 10507 10512 10519 10523 10533 10540 10550 10559 10558 10561 10570 10578 10591 10589 10604 10611 10611 10622 10633 10635 10652
10626 10620 10615 10608 10600 10592 10584 10576 10567 10557 10548 10539 10528 10518 10508 10506 10497 10489 10486 10480 10478 10478 10481 10484 10488 10493 10500 10506 10515 10522 10535 10537 10544 10547 10557 10567 10575 10574 10588 10594 10594 10604 10612 10622 10639
10616 10609 10603 10596 10588 10581 10572 10564 10555 10544 10536 10526 10517 10505 10496 10488 10480 10475 10470 10466 10463 10463 10465 10467 10471 10478 10483 10491 10495 10506 10514 10518 10526 10535 10544 10551 10555 10567 10567 10576 10583 10590 10604 10614 10619
10605 10597 10591 10584 10577 10570 10561 10552 10543 10533 10524 10516 10505 10495 10484 10475 10469 10462 10456 10455 10450 10449 10449 10451 10455 10463 10469 10476 10481 10491 10495 10503 10513 10520 10529 10534 10544 10549 10559 10565 10565 10572 10588 10594 10601
10592 10585 10578 10571 10565 10558 10550 10540 10531 10522 10514 10505 10495 10486 10476 10463 10457 10449 10445 10442 10438 10435 10435 10437 10442 10450 10457 10463 10470 10475 10481 10489 10498 10504 10512 10523 10527 10540 10546 10539 10550 10560 10573 10576 10589
10580 10574 10566 10559 10552 10545 10537 10528 10519 10510 10501 10493 10484 10475 10467 10455 10446 10438 10434 10432 10427 10424 10422 10424 10429 10436 10444 10450 10458 10463 10471 10477 10483 10488 10498 10505 10519 10527 10522 10530 10540 10547 10555 10563 10573
10567 10561 10555 10546 10538 10532 10524 10516 10507 10498 10490 10482 10474 10465 10457 10447 10438 10432 10426 10422 10418 10414 10412 10413 10418 10425 10432 10439 10445 10452 10460 10465 10468 10476 10483 10493 10508 10504 10513 10519 10527 10532 10540 10548 10556
10553 10547 10541 10533 10525 10518 10511 10504 10495 10486 10478 10470 10462 10456 10446 10438 10429 10424 10418 10413 10409 10406 10405 10405 10409 10415 10422 10430 10438 10440 10449 10455 10458 10463 10469 10478 10492 10490 10501 10508 10515 10519 10526 10532 10540
10540 10533 10527 10520 10512 10503 10496 10488 10480 10472 10464 10458 10451 10445 10434 10428 10421 10416 10412 10406 10403 10400 10399 10399 10401 10405 10412 10418 10422 10429 10437 10441 10447 10452 10456 10469 10481 10482 10489 10497 10504 10505 10510 10517 10525
10526 10518 10512 10505 10499 10489 10481 10474 10466 10458 10451 10445 10438 10432 10424 10417 10412 10408 10405 10400 10397 10393 10392 10393 10393 10397 10401 10406 10409 10415 10423 10429 10431 10435 10447 10455 10469 10474 10473 10482 10488 10490 10497 10503 10506
10510 10503 10496 10489 10482 10475 10467 10457 10449 10445 10438 10431 10425 10418 10412 10407 10403 10398 10396 10393 10390 10387 10385 10384 10385 10387 10390 10394 10399 10404 10409 10413 10419 10423 10434 10440 10452 10460 10457 10467 10475 10475 10477 10484 10495
10494 10487 10480 10473 10465 10458 10451 10443 10434 10427 10425 10418 10411 10404 10399 10394 10392 10388 10385 10383 10381 10380 10377 10376 10375 10377 10378 10380 10387 10390 10396 10398 10406 10408 10417 10428 10439 10444 10447 10450 10454 10451 10462 10474 10485
10477 10471 10464 10455 10448 10440 10434 10426 10418 10409 10408 10407 10400 10391 10386 10381 10380 10376 10373 10371 10368 10368 10367 10367 10364 10364 10365 10368 10373 10376 10379 10384 10390 10395 10403 10412 10425 10430 10429 10432 10425 10441 10460 10464 10470
10459 10452 10445 10437 10431 10424 10416 10409 10401 10392 10389 10389 10385 10377 10372 10368 10365 10363 10359 10357 10355 10354 10353 10354 10353 10351 10351 10353 10354 10360 10360 10367 10372 10380 10389 10395 10408 10418 10411 10405 10416 10433 10441 10446 10457
10439 10433 10426 10420 10413 10406 10400 10392 10384 10376 10372 10368 10367 10363 10357 10353 10350 10347 10344 10342 10341 10339 10339 10336 10340 10338 10338 10339 10339 10342 10344 10348 10353 10362 10376 10374 10389 10404 10385 10392 10409 10411 10418 10431 10441
10420 10415 10409 10402 10396 10391 10384 10377 10370 10363 10355 10355 10347 10344 10341 10336 10333 10329 10327 10327 10325 10324 10322 10323 10319 10325 10323 10325 10323 10325 10327 10329 10332 10341 10353 10360 10368 10381 10371 10381 10383 10391 10401 10415 10428
10402 10397 10391 10386 10380 10374 10369 10362 10355 10348 10341 10335 10330 10326 10324 10319 10316 10312 10310 10310 10310 10305 10305 10305 10304 10304 10304 10304 10306 10308 10308 10309 10311 10321 10329 10341 10349 10354 10357 10361 10365 10375 10388 10398 10410
10382 10377 10372 10368 10363 10358 10353 10345 10340 10330 10324 10318 10314 10312 10307 10301 10297 10294 10291 10291 10291 10289 10283 10284 10285 10284 10285 10283 10283 10287 10290 10290 10291 10299 10306 10321 10326 10325 10332 10335 10348 10359 10367 10378 10389
10362 10357 10352 10347 10343 10339 10334 10328 10322 10313 10306 10301 10298 10294 10290 10283 10280 10274 10274 10273 10269 10266 10262 10263 10262 10261 10262 10262 10258 10260 10263 10263 10265 10275 10284 10300 10301 10298 10306 10321 10327 10337 10344 10356 10366
10341 10335 10330 10325 10320 10315 10312 10308 10301 10293 10286 10282 10278 10275 10270 10265 10260 10255 10253 10252 10248 10243 10240 10237 10237 10240 10241 10237 10230 10233 10234 10238 10241 10253 10261 10275 10279 10274 10286 10298 10306 10314 10321 10333 10347
10321 10316 10308 10303 10298 10294 10293 10288 10283 10274 10267 10262 10258 10255 10251 10244 10240 10234 10230 10229 10224 10221 10215 10214 10210 10218 10214 10207 10201 10210 10208 10213 10217 10229 10234 10243 10257 10253 10267 10273 10281 10290 10298 10312 10320
10300 10295 10289 10284 10279 10274 10271 10267 10261 10255 10248 10242 10238 10235 10231 10224 10216 10211 10204 10204 10199 10194 10189 10185 10184 10190 10190 10180 10174 10182 10182 10184 10191 10198 10210 10209 10244 10229 10240 10259 10263 10267 10278 10286 10294
10278 10273 10265 10260 10257 10254 10250 10246 10240 10233 10226 10219 10215 10210 10208 10201 10192 10190 10184 10184 10174 10167 10163 10157 10158 10157 10161 10150 10151 10156 10157 10160 10164 10174 10182 10192 10214 10205 10208 10224 10232 10237 10244 10250 10262
10257 10250 10242 10238 10236 10232 10227 10223 10217 10210 10203 10196 10192 10186 10183 10176 10168 10166 10161 10154 10152 10146 10138 10135 10134 10128 10129 10128 10124 10133 10139 10135 10140 10148 10147 10178 10172 10183 10180 10191 10207 10217 10223 10232 10244
10233 10226 10221 10219 10215 10209 10203 10201 10194 10187 10181 10175 10169 10163 10156 10150 10148 10144 10137 10130 10127 10121 10116 10110 10109 10104 10109 10102 10100 10113 10117 10115 10115 10120 10121 10143 10153 10156 10154 10166 10182 10191 10201 10210 10222
10206 10202 10201 10203 10194 10187 10180 10176 10169 10167 10160 10151 10146 10138 10127 10127 10124 10119 10111 10106 10103 10098 10088 10084 10081 10078 10091 10070 10074 10102 10087 10084 10087 10092 10093 10110 10133 10122 10132 10141 10158 10168 10176 10187 10200